Weather Roundup
Issued by NWS Corpus Christi, TX

Home | Current Version | Previous Version | Text Only | Print | Product List | Glossary On
Versions: 1 2 3 4 5 6 7 8 9 10 11 12 13 14 15 16 17 18 19 20 21 22 23 24 25 26 27 28 29 30 31 32 33 34 35 36 37 38 39 40 41 42 43 44 45 46 47 48 49 50
000
ASUS44 KCRP 282010
HRRCRP

SOUTH TEXAS REGIONAL WEATHER ROUNDUP
NATIONAL WEATHER SERVICE CORPUS CHRISTI TX
300 PM CDT THU APR 28 2016


TXZ229>244-282100-
...CORPUS CHRISTI AREA OBSERVATIONS...

CITY           SKY/WX    TMP DP  RH WIND       PRES   REMARKS
CORPUS CHRISTI PTSUNNY   83  74  74 SE20      29.74F
NAS CORPUS CHR CLOUDY    83  77  82 SE15      29.74F HAZE    HX  92
ROCKPORT       MOSUNNY   87  75  67 SE13      29.75F HX  96
KINGSVILLE NAS CLOUDY    86  77  74 SE20G25   29.72F HAZE    HX  97
ALICE          PTSUNNY   86  73  65 SE15G28   29.72F HX  93
FALFURRIAS     PTSUNNY   89  73  58 SE14G21   29.69F HX  96
$$

...VICTORIA AREA OBSERVATIONS...

CITY           SKY/WX    TMP DP  RH WIND       PRES   REMARKS
VICTORIA       CLOUDY    79  74  84 SE17      29.78S HAZE
BEEVILLE       CLOUDY    86  77  73 SE12G21   29.75S HX  96
PLEASANTON     PTSUNNY   85  71  64 E12       29.75F HX  90
SAN ANTONIO    RAIN      79  68  69 E12       29.78F
$$

...LAREDO AREA OBSERVATIONS...

CITY           SKY/WX    TMP DP  RH WIND       PRES   REMARKS
LAREDO         MOSUNNY   94  68  42 SE14      29.68F HX  98
COTULLA        PTSUNNY   89  69  51 SE16      29.71F HX  93
DEL RIO        MOSUNNY   84  64  50 SE15      29.72F
MCALLEN        MOSUNNY   93  73  52 SE15      29.67F HX 102
HEBBRONVILLE   MOSUNNY   92  66  41 SE12G18   29.70F HX  94
$$

...OTHER TEXAS OBSERVATIONS...

CITY           SKY/WX    TMP DP  RH WIND       PRES   REMARKS
BROWNSVILLE    SUNNY     87  75  67 SE18G24   29.70F HX  96
HOUSTON        PTSUNNY   83  72  69 SE15      29.81F
COL. STATION   SUNNY     87  66  49 SE13      29.79F
AUSTIN         MOSUNNY   86  65  49 SE12      29.77F
WACO           SUNNY     83  63  50 E13       29.82F
FORT WORTH     MOSUNNY   83  59  44 SE13G20   29.84F
WICHITA FALLS  SUNNY     80  56  43 SE20G31   29.83F
LUBBOCK        PTSUNNY   78  51  38 SE21G29   29.75F
EL PASO        MOSUNNY   82  12   7 W24G31    29.76F
$$

...MARINE OBSERVATIONS...

STATION/POSITION TIME  SKY/WX   TEMP    WIND        PRES    VSBY  WAVE   SWELL
                                AIR SEA DIR/SP/G                  HT/PER HT/PER
                 (UTC)          (F)     (DEG/KT/KT) (MB)    (MI)  (FT/S) (FT/S)
PORT ARANSAS     2000            77 78  110/ 11/ 12 1008.1F
BUOY 90 E PORT A 1950            77 77  100/ 16/ 19 1007.9F         3/ 7   2/ 7
BUOY 45 SE BAFFI 1950            79 78  140/ 14/ 16 1006.3F         4/ 8   3/ 8
BUOY 200 E PT IS 1950                                 N/A           4/ 7   2/ 7
BUOY 15 E GALVES 1950            76 77   70/ 12/ 14 1009.6F         3/ 8   2/ 8
$$




USA.gov is the U.S. government's official web portal to all federal, state and local government web resources and services.